Regional Weather Roundup
Issued by NWS Charleston, WV

Home | Current Version | Previous Version | Graphics & Text | Print | Product List | Glossary On
Versions: 1 2 3 4 5 6 7 8 9 10 11 12 13 14 15 16 17 18 19 20 21 22 23 24 25 26 27 28 29 30 31 32 33 34 35 36 37 38 39 40 41 42 43 44 45 46 47 48 49 50
000
ASUS41 KRLX 010410
RWRRLX
West Virginia Regional Weather Roundup
National Weather Service Charleston WV
1200 AM EDT SAT AUG 01 2015

Note: "fair" indicates few or no clouds below 12,000 feet with no
significant weather and/or obstructions to visibility.

WVZ003-010500-
Northern Panhandle of West Virginia

CITY           SKY/WX    TMP DP  RH WIND       PRES   REMARKS
WHEELING       MOCLDY    74  58  57 SW7       29.93S
$$

WVZ009-010500-
Northwest West Virginia

CITY           SKY/WX    TMP DP  RH WIND       PRES   REMARKS
PARKERSBURG    CLOUDY    74  62  66 SW5       29.97S
$$

WVZ006-010500-
Western West Virginia

CITY           SKY/WX    TMP DP  RH WIND       PRES   REMARKS
HUNTINGTON     CLEAR     69  65  86 S3        29.98S
$$

WVZ015-010500-
West Central West Virginia

CITY           SKY/WX    TMP DP  RH WIND       PRES   REMARKS
CHARLESTON     CLEAR     68  63  84 CALM      29.98S
$$

WVZ022-031-010500-
North Central West Virginia

CITY           SKY/WX    TMP DP  RH WIND       PRES   REMARKS
CLARKSBURG     CLEAR     68  60  75 S5        29.96S
MORGANTOWN     CLEAR     70  58  65 S5        29.96F
$$

WVZ025-035-042-045-010500-
Southern West Virginia

CITY           SKY/WX    TMP DP  RH WIND       PRES   REMARKS
BECKLEY        CLEAR     65  57  75 S7        30.09S
LOGAN            N/A     68  63  83 CALM      30.01R
BLUEFIELD      CLEAR     67  56  67 W6        30.12S
LEWISBURG      CLEAR     64  57  78 CALM      30.07F
$$

WVZ047-010500-
Northern Mountains of West Virginia

CITY           SKY/WX    TMP DP  RH WIND       PRES   REMARKS
ELKINS         PTCLDY    62  58  86 CALM      30.03S
$$

WVZ052-010500-
Eastern Panhandle of West Virginia

CITY           SKY/WX    TMP DP  RH WIND       PRES   REMARKS
MARTINSBURG    CLEAR     68  60  75 SE6       29.91S
PETERSBURG     CLEAR    N/A N/A N/A CALM      29.97S
$$



USA.gov is the U.S. government's official web portal to all federal, state and local government web resources and services.